Retour au catalogue

FENGYUN 1C DEB

ActifSSO
NORAD 30504·DEBRIS·🇨🇳 China

Lancé May 10, 1999 depuis Taiyuan Satellite Launch Center

Loading…

Prochains Passages (prochaines 24 heures)

TLE

FraisSource: Space-Track

Époque: Sep 14, 2026, 09:11 UTC

1 30504U 99025AHS 26257.38307321  .00000367  00000-0  17844-3 0  9999
2 30504  98.9932 313.8879 0111190 148.8700 211.9126 14.21054381 13076

Suivez FENGYUN 1C DEB en temps réel avec AllMySat

Download on the App Store